Location: Unspecified
(0.0000°N, 0.0000°E)
Time: 22:04:20
(UTC+00:00)

PCSat - Pass Details

Date: 27 September 2020
Orbit: 785 x 794 km, 67.1° (Epoch: 30 October)

Event Time Altitude Azimuth Distance (km) Brightness Sun altitude
Exits shadow 03:20:24 15° 146° (SE) 2,036 12.0 -37.6°
Drops below altitude 10° 03:21:16 10° 148° (SSE) 2,353 12.3 -37.4°
Sets 03:23:43 0° 152° (SSE) 3,282 13.1 -36.8°
